Flag for Germany Weather past 2 weeks in Falkensee, Brandenburg, Germany

Now
55 °F

Passing clouds.


Feels Like: 53 °F
Forecast: 51 / 57 °F
Wind: 10 mph from West

Location: Berlin-Tegel

Current Time: Oct 20, 2014 at 8:02:42 PM

Latest Report: Oct 20, 2014 at 7:20 PM


Visibility: N/A

Pressure: 29.89 "Hg

Humidity: 82%

Dew point: 50 °F

Location of FalkenseeLocation

Historic Weather in Falkensee — Graph

°F

Falkensee temperature yesterday

Maximum temperature yesterday: 72 °F (at 2:50 PM)
Minimum temperature yesterday: 52 °F (at 5:50 AM)
Average temperature yesterday: 61 °F

Past Weeks' High & Low Weather Summary

 TemperatureHumidityPressure
High72 °F (Oct 19, 2:50 PM)100% (Oct 17, 3:20 AM)30.24 "Hg (Oct 17, 3:20 AM)
Low48 °F (Oct 16, 4:20 AM)43% (Oct 6, 3:50 PM)29.68 "Hg (Oct 9, 5:20 AM)
Average58 °F81%29.88 "Hg
* Reported Oct 5 6:20 PM — Oct 20 6:50 PM, Falkensee, Weather by CustomWeather, © 2014

Note: Actual official high and low records may vary slightly from our data, if they occured in-between our weather recording intervals... More about our weather records

Advertising

Falkensee weather history for previous 24 hours

 ConditionsComfort  
Time TempWeatherWind HumidityBarometerVisibility
6:50 PM
Oct 20
57 °FBroken clouds.13 mph77%29.89 "HgN/A
6:20 PM57 °FBroken clouds.14 mph82%29.89 "HgN/A
5:50 PM59 °FPartly sunny.13 mph77%29.89 "HgN/A
5:20 PM59 °FPartly sunny.17 mph72%29.89 "HgN/A
4:50 PM61 °FPartly sunny.17 mph68%29.89 "HgN/A
4:20 PM61 °FScattered clouds.18 mph68%29.89 "HgN/A
3:50 PM63 °FScattered clouds.18 mph68%29.89 "HgN/A
3:20 PM61 °FBroken clouds.15 mph72%29.89 "HgN/A
2:50 PM61 °FSprinkles. Broken clouds.17 mph72%29.89 "HgN/A
2:20 PM59 °FSprinkles. Partly sunny.16 mph77%29.89 "HgN/A
1:50 PM61 °FBroken clouds.18 mph68%29.89 "HgN/A
1:20 PM63 °FBroken clouds.18 mph64%29.89 "HgN/A
12:50 PM59 °FSprinkles. Broken clouds.21 mph77%29.89 "HgN/A
12:20 PM61 °FPartly sunny.23 mph68%29.92 "HgN/A
11:50 AM59 °FBroken clouds.18 mph72%29.92 "HgN/A
11:20 AM59 °FPartly sunny.20 mph72%29.89 "HgN/A
10:50 AM59 °FPartly sunny.21 mph72%29.89 "HgN/A
10:20 AM59 °FPartly sunny.21 mph72%29.89 "HgN/A
9:50 AM59 °FPartly sunny.20 mph72%29.89 "HgN/A
9:20 AM57 °FPassing clouds.17 mph77%29.89 "HgN/A
8:50 AM57 °FPassing clouds.14 mph77%29.89 "HgN/A
8:20 AM57 °FPassing clouds.15 mph82%29.89 "HgN/A
7:50 AM57 °FPassing clouds.12 mph82%29.89 "HgN/A
7:20 AM55 °FPassing clouds.12 mph88%29.89 "HgN/A
6:50 AM55 °FClear.12 mph88%29.89 "Hg10 mi
5:20 AM57 °FPassing clouds.13 mph82%29.89 "HgN/A
4:50 AM57 °FPassing clouds.13 mph88%29.89 "HgN/A
4:20 AM57 °FPassing clouds.12 mph88%29.89 "HgN/A
3:50 AM57 °FPassing clouds.12 mph88%29.89 "HgN/A
3:20 AM57 °FLight rain. Partly cloudy.12 mph88%29.89 "HgN/A
2:50 AM59 °FLight rain. Passing clouds.13 mph82%29.89 "HgN/A
2:20 AM59 °FLight rain. Partly cloudy.12 mph82%29.89 "HgN/A
1:50 AM59 °FLight rain. Partly cloudy.13 mph88%29.89 "HgN/A
1:20 AM59 °FLight rain. Passing clouds.12 mph88%29.89 "HgN/A
12:50 AM61 °FPassing clouds.13 mph83%29.89 "HgN/A
12:20 AM59 °FLight rain. Passing clouds.13 mph88%29.89 "HgN/A
11:50 PM
Oct 19
61 °FLight rain. Passing clouds.10 mph83%29.89 "HgN/A
11:20 PM61 °FSprinkles. Partly cloudy.14 mph83%29.89 "HgN/A
10:50 PM66 °FPartly cloudy.13 mph73%29.89 "HgN/A
10:20 PM66 °FPassing clouds.12 mph73%29.86 "HgN/A
9:50 PM66 °FClear.15 mph73%29.86 "Hg10 mi
9:20 PM66 °FClear.16 mph73%29.86 "Hg10 mi
8:50 PM66 °FClear.14 mph73%29.86 "Hg10 mi
8:20 PM66 °FClear.13 mph73%29.86 "Hg10 mi
Weather by CustomWeather, © 2014

See weather overviewHow to use our weather pages